Regional Weather Roundup
Issued by NWS

Home | Current Version | Previous Version | Text Only | Print | Product List | Glossary Off
Versions: 1 2 3 4 5 6 7 8 9 10 11 12 13 14 15 16 17 18 19 20 21 22 23 24 25 26 27 28 29 30 31 32 33 34 35 36 37 38 39 40 41 42 43 44 45 46 47 48 49 50

000
ASUS43 KOAX 270202
RWRNE

WEATHER ROUNDUP FOR NEBRASKA
NATIONAL WEATHER SERVICE OMAHA NE
900 PM CDT WED JUL 26 2017

NOTES: SATELLITE DATA IS BEING USED TO AUGMENT CLOUD COVER ABOVE
       12000 FEET.
       "FAIR" INDICATES FEW OR NO CLOUDS BELOW 12,000 FEET WITH NO
       SIGNIFICANT WEATHER AND/OR OBSTRUCTIONS TO VISIBILITY.


NEZ001>004-019>022-054>056-270300-
NEBRASKA PANHANDLE

CITY           SKY/WX    TMP DP  RH WIND       PRES   REMARKS
SCOTTSBLUFF    CLOUDY    77  61  57 E3        30.18R
ALLIANCE       CLOUDY    76  59  55 E9        30.17R
CHADRON        MOCLDY    80  51  36 SE7       30.14R
GORDON         FAIR      75  55  49 E7        30.16S
KIMBALL        PTCLDY    75  58  55 E9        30.23R
SIDNEY         CLOUDY    76  61  59 E14       30.20R
$$

NEZ057>060-069>072-079>082-270300-
SOUTHWEST NEBRASKA

CITY           SKY/WX    TMP DP  RH WIND       PRES   REMARKS
NORTH PLATTE   CLOUDY    78  66  66 E8        30.10R
IMPERIAL       MOCLDY    76  63  64 E7        30.13R
LEXINGTON      CLOUDY    74  68  81 NE5       30.08R
MCCOOK         CLOUDY    77  68  73 NE5       30.09R
OGALLALA       CLOUDY    74  70  87 S3        30.14R
$$

NEZ005>010-023>029-035>040-094-270300-
NORTH CENTRAL NEBRASKA

CITY           SKY/WX    TMP DP  RH WIND       PRES   REMARKS
VALENTINE      CLEAR     81  56  42 E12       30.12R
AINSWORTH      CLEAR     74  65  75 E6        30.13R
BROKEN BOW     LGT RAIN  72  69  90 NE6       30.10R
O`NEILL        CLEAR     73  64  73 NE7       30.09R
ORD            CLOUDY    75  68  78 NE6       30.06R
THEDFORD       HVY RAIN  72  69  89 E13       30.14R VSB 1/2
$$

NEZ041-046>049-061>064-073>077-083>087-270300-
SOUTH CENTRAL NEBRASKA

CITY           SKY/WX    TMP DP  RH WIND       PRES   REMARKS
GRAND ISLAND   CLOUDY    75  74  96 N5        30.05R
AURORA         CLOUDY    73  73  98 N3        30.03S
HASTINGS       CLOUDY    75  71  87 NE7       30.04S
HEBRON         CLOUDY    75  73  91 NE5       29.99F
HOLDREGE       CLOUDY    73  68  84 NE7       30.05F
KEARNEY        PTCLDY    74  70  87 NE7       30.06S
YORK           CLEAR     73  73 100 CALM      30.02S
$$

NEZ011>018-030>034-042>045-270300-
NORTHEAST NEBRASKA

CITY           SKY/WX    TMP DP  RH WIND       PRES   REMARKS
NORFOLK        CLEAR     79  68  69 NE7       30.03S
ALBION         CLOUDY    76  75  96 CALM      30.05S
BLAIR          RAIN      74  73  95 N6        30.00S
COLUMBUS       CLOUDY    76  74  93 CALM      30.02S
FREMONT        CLOUDY    75  73  93 CALM      30.01S
TEKAMAH        PTCLDY    76  73  91 S3        29.99R
WAYNE          CLEAR     76  76  99 NE7       30.03S
$$

NEZ050>053-065>068-078-088>093-270300-
SOUTHEAST NEBRASKA

CITY           SKY/WX    TMP DP  RH WIND       PRES   REMARKS
LINCOLN        CLEAR     74  72  93 N7        29.99S
OMAHA EPPLEY   MOCLDY    75  72  90 N5        29.98S
BEATRICE       MOCLDY    74  73  95 N7        29.98R
FALLS CITY     LGT RAIN  77  76  96 CALM      29.95S
NEBRASKA CITY  CLOUDY    75  75 100 N6        29.97S FOG
PLATTSMOUTH    CLOUDY    75  74  95 NE3       29.97F FOG
$$

NEZ044-045-051>053-067-270300-
OMAHA AREA

CITY           SKY/WX    TMP DP  RH WIND       PRES   REMARKS
OMAHA EPPLEY   MOCLDY    75  72  90 N5        29.98S
BLAIR          RAIN      74  73  95 N6        30.00S
FREMONT        CLOUDY    75  73  93 CALM      30.01S
MILLARD        PTCLDY    77  75  95 CALM      29.98S FOG
OFFUTT AFB     MOCLDY    75  73  95 CALM      29.97S
PLATTSMOUTH    CLOUDY    75  74  95 NE3       29.97F FOG
WAHOO          FAIR      74  73  96 CALM      30.00S
$$




USA.gov is the U.S. government's official web portal to all federal, state and local government web resources and services.